This is the latest recevied weather packets stored in our database for station/object KK4KTV-13. If no packets are shown the sender has not sent any weather packets the latest 10 day(s).
| Time | Temp. | Humidity | Pressure | Rain* | Wind** | Luminosity | Snow |
|---|---|---|---|---|---|---|---|
| 1777687564 | 10.56° C | 65% | 1015.7 hPa | 0 mm | - | 0 W/m² | - |
| 1777687260 | 10.56° C | 65% | 1015.7 hPa | 0 mm | - | 0 W/m² | - |
| 1777686958 | 11.11° C | 64% | 1015.7 hPa | 0 mm | - | 0 W/m² | - |
| 1777686654 | 10.56° C | 63% | 1015.5 hPa | 0 mm | - | 0 W/m² | - |
| 1777686351 | 10.56° C | 64% | 1015.3 hPa | 0 mm | - | 0 W/m² | - |
| 1777686048 | 11.11° C | 65% | 1015.1 hPa | 0 mm | - | 0 W/m² | - |
| 1777685743 | 11.11° C | 62% | 1015.2 hPa | 0 mm | - | 0 W/m² | - |
| 1777685440 | 11.67° C | 61% | 1015.2 hPa | 0 mm | - | 0 W/m² | - |
| 1777685137 | 11.67° C | 60% | 1015.2 hPa | 0 mm | - | 0 W/m² | - |
| 1777684835 | 11.67° C | 60% | 1015.3 hPa | 0 mm | - | 0 W/m² | - |
| 1777684532 | 11.67° C | 60% | 1015.2 hPa | 0 mm | - | 0 W/m² | - |
| 1777684228 | 11.67° C | 59% | 1014.8 hPa | 0 mm | - | 0 W/m² | - |
| 1777683926 | 11.67° C | 58% | 1014.6 hPa | 0 mm | - | 0 W/m² | - |
| 1777683622 | 11.67° C | 57% | 1014.4 hPa | 0 mm | - | 0 W/m² | - |
| 1777683320 | 12.22° C | 57% | 1014 hPa | 0 mm | - | 0 W/m² | - |
| 1777683017 | 12.22° C | 55% | 1013.8 hPa | 0 mm | - | 0 W/m² | - |
| 1777682712 | 12.78° C | 54% | 1013.7 hPa | 0 mm | - | 0 W/m² | - |
| 1777682410 | 12.78° C | 54% | 1013.6 hPa | 0 mm | - | 1 W/m² | - |
| 1777682108 | 12.78° C | 53% | 1013.3 hPa | 0 mm | - | 2 W/m² | - |
| 1777681804 | 12.78° C | 53% | 1013.5 hPa | 0 mm | - | 3 W/m² | - |
| 1777681501 | 13.33° C | 50% | 1013.2 hPa | 0 mm | - | 6 W/m² | - |
| 1777681198 | 13.33° C | 49% | 1013.4 hPa | 0 mm | - | 8 W/m² | - |
| 1777680895 | 13.89° C | 49% | 1013.1 hPa | 0 mm | - | 11 W/m² | - |
| 1777680593 | 13.89° C | 48% | 1013.2 hPa | 0 mm | - | 16 W/m² | - |
| 1777680291 | 13.89° C | 47% | 1013.3 hPa | 0 mm | - | 19 W/m² | - |
* Rain latest hour (hover to see other rain measurements)
** Current wind speed in m/s (hover to see current wind gust speed)